Regional Weather Roundup
Issued by NWS Wakefield, VA

Home | Current Version | Previous Version | Graphics & Text | Print | Product List | Glossary On
Versions: 1 2 3 4 5 6 7 8 9 10 11 12 13 14 15 16 17 18 19 20 21 22 23 24 25 26 27 28 29 30 31 32 33 34 35 36 37 38 39 40 41 42 43 44 45 46 47 48 49 50
000
ASUS41 KAKQ 212310
RWRAKQ

REGIONAL WEATHER ROUNDUP
NATIONAL WEATHER SERVICE WAKEFIELD VA
600 PM EST SUN DEC 21 2014

Note: "fair" indicates few or no clouds below 12,000 feet with no
significant weather and/or obstructions to visibility. * = Denotes
station may not report precipitation (e.g., rain,snow,etc.),
thunder or fog.

VAZ042-051-052>054-056-220000-
NORTHERN VIRGINIA

CITY           SKY/WX    TMP DP  RH WIND       PRES   REMARKS
WASH NATIONAL  PTCLDY    41  26  55 NE3       30.32F
DULLES         MOCLDY    32  24  72 CALM      30.31S
FORT BELVOIR   CLEAR     34  24  68 SW2       30.33R
QUANTICO       CLEAR     37  26  64 NW3       30.33R
FREDERICKSBRG* CLEAR     37  28  69 CALM      30.31R
STAFFORD*      CLEAR     33  25  71 CALM      30.35R
WARRENTON      CLEAR     32  30  91 CALM      30.30R
CULPEPER*      CLEAR     30  27  86 CALM      30.31R
MANASSAS*      CLEAR     36  27  69 NE3       30.31S
LEESBURG*      CLEAR     36  28  75 MISG      30.32R
WINCHESTER     CLEAR     34  23  64 CALM      30.29R
FRONT ROYAL*   CLEAR     34  27  75 CALM      30.27R
LURAY*         CLEAR     34  28  80 N6        30.24F
$$

VAZ048-049-060>072-079>083-220000-
CENTRAL AND SOUTH CENTRAL VIRGINIA

CITY           SKY/WX    TMP DP  RH WIND       PRES   REMARKS
RICHMOND       PTCLDY    38  27  64 E3        30.30R
CHESTERFIELD*  CLEAR     37  19  48 CALM      30.30R
PETERSBURG*    CLEAR     32  29  90 CALM      30.30S
HANOVER        CLEAR     33  27  78 CALM      30.31R
TAPPAHANNOCK*  CLEAR     36  25  64 CALM      30.31R
QUINTON*       CLEAR     36  28  72 MISG      30.31R
CHARLOTTSVILLE CLEAR     38  27  64 NE6       30.26S
GORDONSVILLE*  CLEAR     32  26  80 CALM      30.27F
ORANGE*        CLEAR     32  28  86 CALM      30.29S
LOUISA*        CLEAR     30  27  86 CALM      30.27S
BUMPASS*       CLEAR     33  27  79 NW3       30.28S
FARMVILLE*     CLEAR     40  29  66 CALM      30.25F
CREWE*         CLEAR     35  29  78 CALM      30.26F
FORT PICKETT*  CLEAR     36  29  74 E5        30.27S
CHASE CITY*    CLEAR     41  33  75 CALM      30.25F
CLARKSVILLE*   CLEAR     37  32  81 CALM      30.24F
SOUTH HILL*    CLEAR     35  31  85 CALM      30.32S
LAWRENCEVILLE* CLEAR     37  31  79 CALM      30.27R
EMPORIA*       CLEAR     34  30  86 N3        30.30R
$$

VAZ088>098-220000-
SOUTHEAST VIRGINIA

CITY           SKY/WX    TMP DP  RH WIND       PRES   REMARKS
NORFOLK        CLEAR     37  30  75 NE3       30.31R
VIRGINIA BEACH PTCLDY    37  27  67 N3        30.31R
NORFOLK NAVAL  PTCLDY    41  30  65 NE5       30.32S
WEST POINT*    CLEAR     36  28  71 NE3       30.33R
SALUDA*        FAIR      35  29  78 SE3       30.32R
NEWPORT NEWS   CLEAR     37  30  75 NE3       30.31S
LANGLEY AFB    NOT AVBL
FORT EUSTIS    CLEAR     38  30  72 E3        30.30R
WILLIAMSBURG*  FAIR      39  34  81 E3        30.32R
HR EXEC AP*    CLEAR     36  27  69 NE3       30.33R
FRANKLIN*      CLEAR     36  30  80 E6        30.30R
WAKEFIELD      CLEAR     34  28  79 CALM      30.30R
$$

VAZ020-022-025-037-045-220000-
WEST CENTRAL AND SOUTHWEST VIRGINIA

CITY           SKY/WX    TMP DP  RH WIND       PRES   REMARKS
STAUNTON*      CLEAR     37  26  64 E3        30.23F
WAYNESBORO*    CLEAR     35  26  69 E5        30.21F
HOT SPRINGS VA CLEAR     32  26  77 S7        30.11R
LYNCHBURG      CLEAR     35  29  78 CALM      30.25S
DANVILLE       MOCLDY    41  32  70 E3        30.25R
SOUTH BOSTON*  CLEAR     39  31  71 CALM      30.25S
MARTINSVILLE   CLOUDY    41  35  76 CALM      30.25R
ROANOKE        CLEAR     39  30  70 SE7       30.23R
BLACKSBURG     CLOUDY    38  30  72 E7        30.20S
DUBLIN*        CLOUDY    40  35  81 SE6       30.17S
MARION*        PTCLDY    40  33  78 E6        30.16R
HILLSVILLE*    CLOUDY    38  33  83 S7        30.16R
RICHLANDS*     MOCLDY    40  31  69 SE8       30.10S
WISE*          CLEAR     39  30  70 S3        30.10R
ABINGDON*      MOCLDY    45  35  67 E5        30.10S
$$

MDZ021>025-VAZ099-100-220000-
SOUTHERN MARYLAND AND THE DELMARVA PENINSULA

CITY           SKY/WX    TMP DP  RH WIND       PRES   REMARKS
PATUXENT RIVER PTCLDY    32  25  75 CALM      30.32S
BAY BRIDGE APT   N/A     34  25  69 CALM      30.32F
LEONARDTOWN    CLEAR     32  27  80 CALM      30.33S
DOVER          CLEAR     31  24  75 NW5       30.31R
GEORGETOWN     CLEAR     34  25  69 CALM      30.33R
EASTON         CLEAR     36  27  69 CALM      30.36R
CAMBRIDGE      CLEAR     32  27  80 CALM      30.32S
SALISBURY      CLEAR     34  26  72 CALM      30.32R
OCEAN CITY     CLEAR     31  26  82 CALM      30.33R HAZE
WALLOPS ISLAND CLEAR     34  28  79 CALM      30.32R
ACCOMACK*      CLEAR     32  27  80 CALM      30.32R
$$

NCZ012>017-030>032-220000-
NORTH CENTRAL AND EASTERN NORTH CAROLINA

CITY           SKY/WX    TMP DP  RH WIND       PRES   REMARKS
ROANOKE RAPIDS CLEAR     37  32  81 CALM      30.28R
RALEIGH        CLOUDY    46  34  62 E3        30.26R
ELIZABETH CITY CLEAR     43  33  68 N7        30.29S
AHOSKIE*       PTCLDY    40  32  73 CALM      30.29R
EDENTON*         N/A     40  34  78 E6        30.28S
CURRITUCK*     CLEAR     40  32  74 NE6       30.30S
KILL DEVIL HLS CLEAR     43  37  77 NE7       30.27R
MANTEO         CLEAR     43  37  79 NE10      30.28R
CAPE HATTERAS  CLOUDY    46  43  89 VRB7G16   30.24S
TARBORO*       NOT AVBL
GOLDSBORO      CLOUDY    46  41  83 CALM      30.24R
WASHINGTON     CLOUDY    44  35  70 NE7       30.27S
GREENVILLE     CLOUDY    45  34  65 NE5       30.27R
NEW BERN       MOCLDY    46  36  68 NE8       30.25S
WILMINGTON     CLOUDY    47  38  71 NE9       30.20S
$$

VAZ048-220000-
ELSEWHERE

CITY           SKY/WX    TMP DP  RH WIND       PRES   REMARKS
HARRISBURG PA  MOCLDY    30  21  69 NE5       30.32R
BALTIMORE      PTCLDY    35  23  61 E5        30.31R
ANNAPOLIS      CLEAR     35  27  72 CALM      30.32R
ANDREWS AFB    PTCLDY    32  23  69 E5        30.30F
PHILADELPHIA   PTCLDY    37  21  52 NW8       30.34R
HENDERSON NC   PTCLDY    40  32  74 CALM      30.26R
GREENSBORO     MOCLDY    43  35  73 NE6       30.21R
ROCKY MOUNT    CLOUDY    44  33  65 CALM      30.27R
$$

VAZ100-220000-
MARINE

STATION/POSITION TIME  TEMP    WIND        PRES    WAVE   SWELL
                       AIR SEA DIR/SP/G            HT/PER HT/PER
                 (UTC) (F)     (DEG/KT/KT) (MB)    (FT/S) (FT/S)
CAPE MAY NJ      2300   38 44  300/  2/  7 1026.4R
LEWES DE         2300   39 42  350/  7/  8 1026.7R
15NM E FENWICK I 2300   39 45              1026.3R   2/ 3
OCEAN-CITY-INLET 2300   38 44   30/  3/  5 1026.6R
WACHAPREAGUE VA  2300   36 41  310/  1/  2 1026.2S
THOMAS POINT MD  2300   38 41   70/  6/  6 1027.6F
GOOSES REEF MD   2300   38     VRB  4/  6  1025.8F
COVE POINT MD    2300   37      60/  4/  5 1026.5S
SOLOMONS ISLAND  2300      43                N/A
BISHOPS HEAD MD  2300   37 39  360/  4/  5 1026.0F
POTOMAC MD       2300   39      40/  2/  4 1025.6F
CAMBRIDGE MD     2300   36 40  280/  2/  2 1026.5F
LEWISETTA VA     2300   39 41   60/  6/  9 1026.1S
RAPPAHANNOCK LGT 2300           10/  5/  6 1027.0R
STINGRAY PT      2300   40      50/  8/ 10 1027.0R
YORK RVR RNG VA  2300   40      60/  8/  9 1026.0R
YORKTOWN VA      2300   40 45   70/  5/  7 1026.2R
JAMESTOWN VA     2300   40     110/  2/  4   N/A
DOMINION TERM VA 2300   40      50/  3/  5 1026.3R
KIPTOPEKE VA     2300      49   50/  3/  3   N/A
CHES BAY BRIDGE  2300   41 46   50/  5/  7 1025.7R
CAPE HENRY VA    2300   40      50/  8/  9 1024.8S
CHESAPEAKE LGHT  2200   41      50/  9/ 10 1026.7R
WILLOUBY STN VA  2300   40      30/  7/  8 1026.7R
S CRANEY ISL VA  2300           40/  5/  6 1026.2R
CAPE HENRY BUOY  2300      49                N/A     2/10
1ST LANDING BUOY 2300   41      60/  8/  8 1025.7R
CAPE CHARLES BUO 2300      47                N/A     2/10   2/10
64NM E OF VA BCH 2300   47 54   30/ 14/ 16 1025.0R   2/ 4   2/10
DUCK PIER NC     2300   44 46   40/ 13/ 15 1024.5S
44100 DUCK FRF   2300      51                N/A     3/ 4
44056 DUCK FRF   2300      46                N/A     2/ 4
OREGON INLET NC  2300   45 48   20/ 11/ 14 1024.7R
HATTERAS NC      2300   47 50   20/ 13/ 16 1024.0R
DIAMOND SHLS NC  2300   55                 1022.8F   3/ 5
CAPE LOOKOUT NC  2200   49      30/ 18/ 21 1022.9F
$$


USA.gov is the U.S. government's official web portal to all federal, state and local government web resources and services.